This is the latest recevied weather packets stored in our database for station/object AD0YN. If no packets are shown the sender has not sent any weather packets the latest 10 day(s).
| Time | Temp. | Humidity | Pressure | Rain* | Wind** | Luminosity | Snow |
|---|---|---|---|---|---|---|---|
| 1777087984 | 10.56° C | 84% | 1011.3 hPa | 0 mm | - | 0 W/m² | - |
| 1777087683 | 10.56° C | 83% | 1011.2 hPa | 0 mm | - | 0 W/m² | - |
| 1777087378 | 11.11° C | 83% | 1011.1 hPa | 0 mm | - | 0 W/m² | - |
| 1777087073 | 11.11° C | 82% | 1011.3 hPa | 0 mm | - | 0 W/m² | - |
| 1777086769 | 11.11° C | 81% | 1011.3 hPa | 0 mm | - | 0 W/m² | - |
| 1777086464 | 11.67° C | 80% | 1011.3 hPa | 0 mm | - | 0 W/m² | - |
| 1777086160 | 11.67° C | 80% | 1011.2 hPa | 0 mm | - | 0 W/m² | - |
| 1777085856 | 11.67° C | 81% | 1011 hPa | 0 mm | - | 0 W/m² | - |
| 1777085552 | 11.67° C | 80% | 1011.1 hPa | 0 mm | - | 0 W/m² | - |
| 1777085249 | 11.67° C | 80% | 1011.1 hPa | 0 mm | - | 0 W/m² | - |
| 1777084945 | 12.22° C | 79% | 1011 hPa | 0 mm | - | 0 W/m² | - |
| 1777084641 | 12.22° C | 81% | 1010.8 hPa | 0 mm | - | 0 W/m² | - |
| 1777084336 | 12.22° C | 79% | 1010.8 hPa | 0 mm | - | 0 W/m² | - |
| 1777084036 | 12.78° C | 78% | 1010.7 hPa | 0 mm | - | 0 W/m² | - |
| 1777083734 | 12.78° C | 77% | 1010.8 hPa | 0 mm | - | 0 W/m² | - |
| 1777083430 | 12.22° C | 80% | 1010.4 hPa | 0 mm | - | 0 W/m² | - |
| 1777083128 | 12.78° C | 78% | 1010.7 hPa | 0 mm | - | 0 W/m² | - |
| 1777082827 | 12.78° C | 76% | 1010.4 hPa | 0 mm | - | 0 W/m² | - |
| 1777082522 | 13.33° C | 75% | 1010.5 hPa | 0 mm | - | 0 W/m² | - |
| 1777082217 | 13.89° C | 74% | 1010.3 hPa | 0 mm | - | 0 W/m² | - |
| 1777081912 | 13.89° C | 74% | 1010.4 hPa | 0 mm | - | 0 W/m² | - |
| 1777081608 | 13.89° C | 74% | 1010.2 hPa | 0 mm | - | 0 W/m² | - |
| 1777081304 | 13.89° C | 73% | 1010.1 hPa | 0 mm | - | 0 W/m² | - |
| 1777080999 | 13.89° C | 73% | 1010.3 hPa | 0 mm | - | 0 W/m² | - |
| 1777080693 | 13.89° C | 70% | 1010.2 hPa | 0 mm | - | 0 W/m² | - |
* Rain latest hour (hover to see other rain measurements)
** Current wind speed in m/s (hover to see current wind gust speed)